Time,TemperatureF,DewpointF,PressureIn,WindDirection,WindDirectionDegrees,WindSpeedMPH,WindSpeedGustMPH,Humidity,HourlyPrecipIn,Conditions,Clouds,dailyrainin,SoftwareType,DateUTC
2013-05-15 00:01:00,65.7,42.0,30.00,NNW,347,2.3,2.3,42,0.00,-RA,OVC,0.00,WeatherDisplay:10.37,2013-05-15 06:01:00,
2013-05-15 00:06:00,65.0,41.9,30.01,NNE,25,5.8,5.8,43,0.00,-RA,OVC,0.00,WeatherDisplay:10.37,2013-05-15 06:06:00,
2013-05-15 00:11:00,64.5,42.1,30.01,NNE,25,3.5,3.5,44,0.00,-RA,OVC,0.00,WeatherDisplay:10.37,2013-05-15 06:11:00,
2013-05-15 00:16:00,64.2,41.8,30.01,NNE,25,3.5,3.5,44,0.00,-RA,OVC,0.00,WeatherDisplay:10.37,2013-05-15 06:16:00,
2013-05-15 00:21:00,63.9,42.1,30.01,NE,38,4.6,4.6,45,0.00,-RA,OVC,0.00,WeatherDisplay:10.37,2013-05-15 06:21:00,
2013-05-15 00:26:00,63.7,41.9,30.01,NE,37,3.5,3.5,45,0.00,-RA,OVC,0.00,WeatherDisplay:10.37,2013-05-15 06:26:00,
2013-05-15 00:31:00,63.6,41.9,30.01,NE,37,3.5,3.5,45,0.00,-RA,OVC,0.00,WeatherDisplay:10.37,2013-05-15 06:31:00,
2013-05-15 00:36:00,63.4,42.2,30.01,NE,37,0.0,0.0,46,0.00,-RA,OVC,0.00,WeatherDisplay:10.37,2013-05-15 06:36:00,
2013-05-15 00:41:00,63.1,42.0,30.01,NE,37,1.1,0.0,46,0.00,-RA,OVC,0.00,WeatherDisplay:10.37,2013-05-15 06:41:00,
2013-05-15 00:46:00,62.8,42.3,30.01,NE,37,0.0,0.0,47,0.00,-RA,OVC,0.00,WeatherDisplay:10.37,2013-05-15 06:46:00,
2013-05-15 00:51:00,62.5,42.0,30.01,NE,37,0.0,0.0,47,0.00,-RA,OVC,0.00,WeatherDisplay:10.37,2013-05-15 06:51:00,
2013-05-15 00:56:00,62.2,42.3,30.01,NE,38,1.1,1.7,48,0.00,-RA,OVC,0.00,WeatherDisplay:10.37,2013-05-15 06:56:00,
2013-05-15 01:01:00,61.9,42.5,30.01,NNE,33,5.8,5.8,49,0.00,-RA,OVC,0.00,WeatherDisplay:10.37,2013-05-15 07:01:00,
2013-05-15 01:06:00,61.7,42.3,30.01,NNE,32,4.6,4.6,49,0.00,-RA,OVC,0.00,WeatherDisplay:10.37,2013-05-15 07:06:00,
2013-05-15 01:11:00,61.5,42.2,30.01,NE,36,6.9,6.9,49,0.00,-RA,OVC,0.00,WeatherDisplay:10.37,2013-05-15 07:11:00,
2013-05-15 01:16:00,61.4,42.6,30.01,NE,36,3.5,3.5,50,0.00,-RA,OVC,0.00,WeatherDisplay:10.37,2013-05-15 07:16:00,
2013-05-15 01:21:00,61.2,42.9,30.01,NE,36,1.1,1.1,51,0.00,-RA,OVC,0.00,WeatherDisplay:10.37,2013-05-15 07:21:00,
2013-05-15 01:26:00,60.9,42.6,30.01,NE,36,1.1,0.0,51,0.00,-RA,OVC,0.00,WeatherDisplay:10.37,2013-05-15 07:26:00,
2013-05-15 01:32:00,60.5,42.8,30.01,NE,36,2.3,2.3,52,0.00,-RA,OVC,0.00,WeatherDisplay:10.37,2013-05-15 07:32:00,
2013-05-15 01:37:00,60.1,42.4,30.01,NE,36,3.5,3.5,52,0.00,-RA,OVC,0.00,WeatherDisplay:10.37,2013-05-15 07:37:00,
2013-05-15 01:42:00,59.9,42.2,29.99,NE,36,3.5,3.5,52,0.00,-RA,OVC,0.00,WeatherDisplay:10.37,2013-05-15 07:42:00,
2013-05-15 01:47:00,59.8,41.6,29.99,NE,36,2.3,2.3,51,0.00,-RA,OVC,0.00,WeatherDisplay:10.37,2013-05-15 07:47:00,
2013-05-15 01:52:00,59.8,41.6,29.99,NE,36,0.0,0.0,51,0.00,-RA,OVC,0.00,WeatherDisplay:10.37,2013-05-15 07:52:00,
2013-05-15 01:57:00,59.6,41.4,29.99,NE,36,0.0,0.0,51,0.00,-RA,OVC,0.00,WeatherDisplay:10.37,2013-05-15 07:57:00,
2013-05-15 02:02:00,59.3,41.2,29.98,NE,36,3.5,3.5,51,0.00,-RA,OVC,0.00,WeatherDisplay:10.37,2013-05-15 08:02:00,
2013-05-15 02:07:00,59.2,41.6,29.98,NE,36,0.0,0.0,52,0.00,-RA,OVC,0.00,WeatherDisplay:10.37,2013-05-15 08:07:00,
2013-05-15 02:12:00,59.0,41.4,29.98,NE,36,0.0,0.0,52,0.00,-RA,OVC,0.00,WeatherDisplay:10.37,2013-05-15 08:12:00,
2013-05-15 02:17:00,58.8,40.7,29.98,NE,36,0.0,0.0,51,0.00,-RA,OVC,0.00,WeatherDisplay:10.37,2013-05-15 08:17:00,
2013-05-15 02:22:00,58.5,40.9,29.98,NE,36,2.3,2.3,52,0.00,-RA,OVC,0.00,WeatherDisplay:10.37,2013-05-15 08:22:00,
2013-05-15 02:27:00,58.3,40.7,29.98,NE,36,1.1,0.0,52,0.00,-RA,OVC,0.00,WeatherDisplay:10.37,2013-05-15 08:27:00,
2013-05-15 02:32:00,58.3,41.2,29.98,NE,36,2.3,2.3,53,0.00,-RA,OVC,0.00,WeatherDisplay:10.37,2013-05-15 08:32:00,
2013-05-15 02:37:00,58.2,41.1,29.98,NE,36,0.0,0.0,53,0.00,-RA,OVC,0.00,WeatherDisplay:10.37,2013-05-15 08:37:00,
2013-05-15 02:42:00,58.0,41.0,29.98,NE,36,1.1,1.1,53,0.00,-RA,OVC,0.00,WeatherDisplay:10.37,2013-05-15 08:42:00,
2013-05-15 02:47:00,57.8,40.3,29.98,NE,36,2.3,0.0,52,0.00,-RA,OVC,0.00,WeatherDisplay:10.37,2013-05-15 08:47:00,
2013-05-15 02:52:00,57.8,40.3,29.98,NE,36,0.0,0.0,52,0.00,-RA,OVC,0.00,WeatherDisplay:10.37,2013-05-15 08:52:00,
2013-05-15 02:57:00,57.7,40.2,29.98,NE,36,1.1,1.1,52,0.00,-RA,OVC,0.00,WeatherDisplay:10.37,2013-05-15 08:57:00,
2013-05-15 03:02:00,57.5,40.0,29.98,NE,36,0.0,0.0,52,0.00,-RA,OVC,0.00,WeatherDisplay:10.37,2013-05-15 09:02:00,
2013-05-15 03:07:00,57.4,40.4,29.98,NE,36,0.0,0.0,53,0.00,-RA,OVC,0.00,WeatherDisplay:10.37,2013-05-15 09:07:00,
2013-05-15 03:12:00,57.1,40.1,29.98,NE,36,1.1,0.0,53,0.00,-RA,OVC,0.00,WeatherDisplay:10.37,2013-05-15 09:12:00,
2013-05-15 03:17:00,56.9,39.9,29.98,NE,36,1.1,0.0,53,0.00,-RA,OVC,0.00,WeatherDisplay:10.37,2013-05-15 09:17:00,
2013-05-15 03:22:00,56.7,39.7,29.98,NE,36,0.0,0.0,53,0.00,-RA,OVC,0.00,WeatherDisplay:10.37,2013-05-15 09:22:00,
2013-05-15 03:27:00,56.7,39.7,29.98,NE,36,0.0,0.0,53,0.00,-RA,OVC,0.00,WeatherDisplay:10.37,2013-05-15 09:27:00,
2013-05-15 03:32:00,56.7,39.7,29.98,NE,36,1.1,1.1,53,0.00,-RA,OVC,0.00,WeatherDisplay:10.37,2013-05-15 09:32:00,
2013-05-15 03:37:00,56.5,40.0,29.98,NE,36,2.0,2.0,54,0.00,-RA,OVC,0.00,WeatherDisplay:10.37,2013-05-15 09:37:00,
2013-05-15 03:42:00,56.8,40.3,29.98,NE,36,3.5,3.5,54,0.00,-RA,OVC,0.00,WeatherDisplay:10.37,2013-05-15 09:42:00,
2013-05-15 03:47:00,57.1,39.6,29.98,NE,36,0.0,0.0,52,0.00,-RA,OVC,0.00,WeatherDisplay:10.37,2013-05-15 09:47:00,
2013-05-15 03:52:00,57.2,39.7,29.98,NE,36,0.0,0.0,52,0.00,-RA,OVC,0.00,WeatherDisplay:10.37,2013-05-15 09:52:00,
2013-05-15 03:57:00,57.3,39.3,29.98,NE,36,0.0,0.0,51,0.00,-RA,OVC,0.00,WeatherDisplay:10.37,2013-05-15 09:57:00,
2013-05-15 04:02:00,57.2,39.7,29.98,NE,36,0.0,0.0,52,0.00,-RA,OVC,0.00,WeatherDisplay:10.37,2013-05-15 10:02:00,
2013-05-15 04:07:00,57.0,40.0,29.98,NE,36,0.0,0.0,53,0.00,-RA,OVC,0.00,WeatherDisplay:10.37,2013-05-15 10:07:00,
2013-05-15 04:12:00,56.6,40.1,29.98,NE,36,0.0,0.0,54,0.00,-RA,OVC,0.00,WeatherDisplay:10.37,2013-05-15 10:12:00,
2013-05-15 04:17:00,56.2,40.7,29.98,NE,36,0.0,0.0,56,0.00,-RA,OVC,0.00,WeatherDisplay:10.37,2013-05-15 10:17:00,
2013-05-15 04:22:00,56.0,40.5,29.98,NE,36,0.0,0.0,56,0.00,-RA,OVC,0.00,WeatherDisplay:10.37,2013-05-15 10:22:00,
2013-05-15 04:27:00,55.6,40.6,29.98,NE,36,1.1,1.1,57,0.00,-RA,OVC,0.00,WeatherDisplay:10.37,2013-05-15 10:27:00,
2013-05-15 04:32:00,55.2,39.8,29.98,NE,36,0.0,0.1,56,0.00,-RA,OVC,0.00,WeatherDisplay:10.37,2013-05-15 10:32:00,
2013-05-15 04:37:00,55.3,39.9,29.98,NE,36,1.1,0.0,56,0.00,-RA,OVC,0.00,WeatherDisplay:10.37,2013-05-15 10:37:00,
2013-05-15 04:42:00,55.4,40.0,29.98,NE,36,0.0,0.0,56,0.00,-RA,OVC,0.00,WeatherDisplay:10.37,2013-05-15 10:42:00,
2013-05-15 04:47:00,55.4,40.4,29.98,NE,36,0.0,0.0,57,0.00,-RA,OVC,0.00,WeatherDisplay:10.37,2013-05-15 10:47:00,
2013-05-15 04:52:00,55.4,40.4,29.98,NE,36,0.0,0.0,57,0.00,-RA,OVC,0.00,WeatherDisplay:10.37,2013-05-15 10:52:00,
2013-05-15 04:57:00,55.3,40.3,29.98,NE,36,0.0,0.0,57,0.00,-RA,OVC,0.00,WeatherDisplay:10.37,2013-05-15 10:57:00,
2013-05-15 05:02:00,55.1,40.6,29.98,NE,36,1.0,0.0,58,0.00,-RA,OVC,0.00,WeatherDisplay:10.37,2013-05-15 11:02:00,
2013-05-15 05:08:00,54.8,40.7,29.98,NE,36,0.0,0.0,59,0.00,-RA,OVC,0.00,WeatherDisplay:10.37,2013-05-15 11:08:00,
2013-05-15 05:13:00,54.6,40.6,29.97,NE,36,0.0,0.0,59,0.00,-RA,OVC,0.00,WeatherDisplay:10.37,2013-05-15 11:13:00,
2013-05-15 05:18:00,54.5,40.5,29.97,NE,36,0.0,0.0,59,0.00,-RA,OVC,0.00,WeatherDisplay:10.37,2013-05-15 11:18:00,
2013-05-15 05:23:00,54.4,40.8,29.97,NE,36,0.0,0.0,60,0.00,-RA,OVC,0.00,WeatherDisplay:10.37,2013-05-15 11:23:00,
2013-05-15 05:29:00,54.2,40.6,29.97,NE,36,3.5,3.5,60,0.00,-RA,OVC,0.00,WeatherDisplay:10.37,2013-05-15 11:29:00,
2013-05-15 05:34:00,54.1,41.4,29.97,NE,36,0.0,0.0,62,0.00,-RA,OVC,0.00,WeatherDisplay:10.37,2013-05-15 11:34:00,
2013-05-15 05:39:00,54.0,41.3,29.97,NE,36,0.0,0.0,62,0.00,-RA,OVC,0.00,WeatherDisplay:10.37,2013-05-15 11:39:00,
2013-05-15 05:44:00,54.0,41.3,29.97,NE,36,3.5,3.5,62,0.00,-RA,OVC,0.00,WeatherDisplay:10.37,2013-05-15 11:44:00,
2013-05-15 05:49:00,54.3,41.1,29.97,NE,36,3.5,3.5,61,0.00,-RA,OVC,0.00,WeatherDisplay:10.37,2013-05-15 11:49:00,
2013-05-15 05:54:00,54.6,41.4,29.97,NE,36,0.0,0.0,61,0.00,-RA,OVC,0.00,WeatherDisplay:10.37,2013-05-15 11:54:00,
2013-05-15 06:00:00,54.8,41.6,29.97,NE,36,0.0,0.0,61,0.00,-RA,OVC,0.00,WeatherDisplay:10.37,2013-05-15 12:00:00,
2013-05-15 06:05:00,54.6,41.4,29.97,NE,36,0.0,0.0,61,0.00,-RA,OVC,0.00,WeatherDisplay:10.37,2013-05-15 12:05:00,
2013-05-15 06:10:00,54.5,41.7,29.97,NE,36,0.0,0.0,62,0.00,-RA,OVC,0.00,WeatherDisplay:10.37,2013-05-15 12:10:00,
2013-05-15 06:15:00,54.4,40.8,29.97,NE,36,0.0,0.0,60,0.00,-RA,OVC,0.00,WeatherDisplay:10.37,2013-05-15 12:15:00,
2013-05-15 06:21:00,54.5,41.3,29.97,NE,36,0.0,0.0,61,0.00,-RA,OVC,0.00,WeatherDisplay:10.37,2013-05-15 12:21:00,
2013-05-15 06:26:00,54.7,41.1,29.97,NE,36,0.0,0.0,60,0.00,-RA,OVC,0.00,WeatherDisplay:10.37,2013-05-15 12:26:00,
2013-05-15 06:31:00,55.0,41.4,29.97,NE,36,0.0,0.0,60,0.00,-RA,OVC,0.00,WeatherDisplay:10.37,2013-05-15 12:31:00,
2013-05-15 06:36:00,55.2,42.0,29.97,NE,36,0.0,0.0,61,0.00,-RA,OVC,0.00,WeatherDisplay:10.37,2013-05-15 12:36:00,
2013-05-15 06:41:00,55.5,42.3,29.97,NE,36,0.0,0.0,61,0.00,-RA,OVC,0.00,WeatherDisplay:10.37,2013-05-15 12:41:00,
2013-05-15 06:46:00,55.7,42.9,29.97,NE,36,0.0,0.0,62,0.00,-RA,OVC,0.00,WeatherDisplay:10.37,2013-05-15 12:46:00,
2013-05-15 06:52:00,56.0,42.7,29.97,NE,36,0.0,0.0,61,0.00,-RA,OVC,0.00,WeatherDisplay:10.37,2013-05-15 12:52:00,
2013-05-15 06:57:00,56.3,43.4,29.97,NE,36,0.0,0.0,62,0.00,-RA,OVC,0.00,WeatherDisplay:10.37,2013-05-15 12:57:00,
2013-05-15 07:03:00,56.7,43.0,29.97,NE,36,0.0,0.0,60,0.00,-RA,OVC,0.00,WeatherDisplay:10.37,2013-05-15 13:03:00,
2013-05-15 07:08:00,57.1,44.2,29.97,NE,36,0.0,0.0,62,0.00,-RA,OVC,0.00,WeatherDisplay:10.37,2013-05-15 13:08:00,
2013-05-15 07:13:00,57.6,44.2,29.97,NE,36,0.0,0.0,61,0.00,-RA,OVC,0.00,WeatherDisplay:10.37,2013-05-15 13:13:00,
2013-05-15 07:18:00,58.1,44.7,29.97,NE,36,0.0,0.0,61,0.00,-RA,OVC,0.00,WeatherDisplay:10.37,2013-05-15 13:18:00,
2013-05-15 07:23:00,58.7,44.8,29.97,NE,36,0.0,0.0,60,0.00,-RA,OVC,0.00,WeatherDisplay:10.37,2013-05-15 13:23:00,
2013-05-15 07:28:00,59.1,42.9,30.00,NE,36,2.3,2.3,55,0.00,-RA,OVC,0.00,WeatherDisplay:10.37,2013-05-15 13:28:00,
2013-05-15 07:34:00,59.6,43.9,30.00,NE,36,1.1,1.1,56,0.00,-RA,OVC,0.00,WeatherDisplay:10.37,2013-05-15 13:34:00,
2013-05-15 07:39:00,60.1,43.4,30.00,NE,36,1.1,1.1,54,0.00,-RA,OVC,0.00,WeatherDisplay:10.37,2013-05-15 13:39:00,
2013-05-15 07:44:00,60.5,43.3,30.00,NE,36,0.0,0.0,53,0.00,-RA,OVC,0.00,WeatherDisplay:10.37,2013-05-15 13:44:00,
2013-05-15 07:49:00,60.8,44.0,30.00,NE,36,0.0,0.0,54,0.00,-RA,OVC,0.00,WeatherDisplay:10.37,2013-05-15 13:49:00,
2013-05-15 07:55:00,61.2,43.4,30.00,NE,36,1.0,0.0,52,0.00,-RA,OVC,0.00,WeatherDisplay:10.37,2013-05-15 13:55:00,
2013-05-15 08:00:00,61.4,43.1,30.00,NE,36,0.0,0.0,51,0.00,-RA,OVC,0.00,WeatherDisplay:10.37,2013-05-15 14:00:00,
2013-05-15 08:05:00,61.7,42.9,30.00,NE,36,2.3,2.3,50,0.00,-RA,OVC,0.00,WeatherDisplay:10.37,2013-05-15 14:05:00,
2013-05-15 08:10:00,61.9,44.1,30.00,NE,36,0.0,0.0,52,0.00,-RA,OVC,0.00,WeatherDisplay:10.37,2013-05-15 14:10:00,
2013-05-15 08:15:00,62.2,41.7,30.00,NE,36,1.1,1.1,47,0.00,-RA,OVC,0.00,WeatherDisplay:10.37,2013-05-15 14:15:00,
2013-05-15 08:20:00,62.7,42.7,30.00,NE,36,0.0,0.0,48,0.00,-RA,OVC,0.00,WeatherDisplay:10.37,2013-05-15 14:20:00,
2013-05-15 08:26:00,63.4,41.7,30.00,NE,36,0.0,0.0,45,0.00,-RA,OVC,0.00,WeatherDisplay:10.37,2013-05-15 14:26:00,
2013-05-15 08:31:00,63.9,40.3,30.00,South,174,2.3,2.3,42,0.00,-RA,OVC,0.00,WeatherDisplay:10.37,2013-05-15 14:31:00,
2013-05-15 08:36:00,64.3,40.1,30.00,South,174,3.5,3.5,41,0.00,-RA,OVC,0.00,WeatherDisplay:10.37,2013-05-15 14:36:00,
2013-05-15 08:41:00,64.8,41.8,30.00,South,174,0.0,0.0,43,0.00,-RA,OVC,0.00,WeatherDisplay:10.37,2013-05-15 14:41:00,
2013-05-15 08:47:00,65.2,41.5,30.00,South,174,1.1,0.0,42,0.00,-RA,OVC,0.00,WeatherDisplay:10.37,2013-05-15 14:47:00,
2013-05-15 08:52:00,65.4,41.1,30.00,South,174,0.0,0.0,41,0.00,-RA,OVC,0.00,WeatherDisplay:10.37,2013-05-15 14:52:00,
2013-05-15 08:57:00,65.5,43.0,30.00,South,174,0.0,0.0,44,0.00,-RA,OVC,0.00,WeatherDisplay:10.37,2013-05-15 14:57:00,
2013-05-15 09:03:00,65.6,43.1,30.00,South,175,2.3,2.3,44,0.00,-RA,OVC,0.00,WeatherDisplay:10.37,2013-05-15 15:03:00,
2013-05-15 09:08:00,65.7,42.0,30.00,South,178,2.3,0.0,42,0.00,-RA,OVC,0.00,WeatherDisplay:10.37,2013-05-15 15:08:00,
2013-05-15 09:13:00,65.8,42.7,30.00,South,176,0.0,0.0,43,0.00,-RA,OVC,0.00,WeatherDisplay:10.37,2013-05-15 15:13:00,
2013-05-15 09:18:00,66.4,42.6,30.00,South,176,3.5,3.5,42,0.00,-RA,OVC,0.00,WeatherDisplay:10.37,2013-05-15 15:18:00,
2013-05-15 09:24:00,67.2,42.7,30.02,South,176,1.1,0.0,41,0.00,-RA,OVC,0.00,WeatherDisplay:10.37,2013-05-15 15:24:00,
2013-05-15 09:29:00,68.4,41.8,30.02,SE,137,4.6,4.6,38,0.00,-RA,OVC,0.00,WeatherDisplay:10.37,2013-05-15 15:29:00,
2013-05-15 09:34:00,69.1,41.0,30.02,ESE,123,3.5,3.5,36,0.00,-RA,OVC,0.00,WeatherDisplay:10.37,2013-05-15 15:34:00,
2013-05-15 09:39:00,69.5,39.9,30.02,ESE,113,4.6,4.6,34,0.00,-RA,OVC,0.00,WeatherDisplay:10.37,2013-05-15 15:39:00,
2013-05-15 09:45:00,69.8,40.2,30.02,ESE,112,0.0,0.0,34,0.00,-RA,OVC,0.00,WeatherDisplay:10.37,2013-05-15 15:45:00,
2013-05-15 09:50:00,70.7,40.2,30.02,SSE,157,2.3,2.3,33,0.00,-RA,OVC,0.00,WeatherDisplay:10.37,2013-05-15 15:50:00,
2013-05-15 09:55:00,71.4,41.6,30.02,SW,232,3.5,3.5,34,0.00,-RA,OVC,0.00,WeatherDisplay:10.37,2013-05-15 15:55:00,
2013-05-15 10:00:00,72.0,40.5,30.02,West,265,2.3,2.3,32,0.00,-RA,OVC,0.00,WeatherDisplay:10.37,2013-05-15 16:00:00,
2013-05-15 10:05:00,72.9,39.6,30.02,South,190,5.8,5.8,30,0.00,-RA,OVC,0.00,WeatherDisplay:10.37,2013-05-15 16:05:00,
2013-05-15 10:10:00,72.9,40.5,30.02,South,173,3.5,3.5,31,0.00,-RA,OVC,0.00,WeatherDisplay:10.37,2013-05-15 16:10:00,
2013-05-15 10:17:00,72.7,39.5,30.02,SW,232,3.5,3.5,30,0.00,-RA,OVC,0.00,WeatherDisplay:10.37,2013-05-15 16:17:00,
2013-05-15 10:22:00,72.6,40.2,30.02,SW,217,3.5,3.5,31,0.00,-RA,OVC,0.00,WeatherDisplay:10.37,2013-05-15 16:22:00,
2013-05-15 10:28:00,73.2,40.7,30.02,SW,232,3.5,3.5,31,0.00,-RA,OVC,0.00,WeatherDisplay:10.37,2013-05-15 16:28:00,
2013-05-15 10:33:00,74.1,40.7,30.02,SSW,202,10.4,10.4,30,0.00,-RA,OVC,0.00,WeatherDisplay:10.37,2013-05-15 16:33:00,
2013-05-15 10:38:00,74.3,40.0,30.02,South,185,2.3,2.3,29,0.00,-RA,OVC,0.00,WeatherDisplay:10.37,2013-05-15 16:38:00,
2013-05-15 10:45:00,74.7,39.4,30.01,SW,234,2.3,3.3,28,0.00,-RA,OVC,0.00,WeatherDisplay:10.37,2013-05-15 16:45:00,
2013-05-15 10:50:00,75.0,40.6,30.01,SW,230,4.6,4.6,29,0.00,-RA,OVC,0.00,WeatherDisplay:10.37,2013-05-15 16:50:00,
2013-05-15 10:55:00,75.5,41.0,30.01,SW,227,5.0,5.0,29,0.00,-RA,OVC,0.00,WeatherDisplay:10.37,2013-05-15 16:55:00,
2013-05-15 11:00:00,75.9,41.3,30.01,SSW,203,4.6,4.6,29,0.00,-RA,OVC,0.00,WeatherDisplay:10.37,2013-05-15 17:00:00,
2013-05-15 11:05:00,76.0,40.5,30.01,West,278,10.4,10.4,28,0.00,-RA,OVC,0.00,WeatherDisplay:10.37,2013-05-15 17:05:00,
2013-05-15 11:10:00,75.7,41.2,30.01,SE,143,6.9,6.9,29,0.00,-RA,OVC,0.00,WeatherDisplay:10.37,2013-05-15 17:10:00,
2013-05-15 11:16:00,76.0,40.5,30.01,WSW,251,6.9,6.9,28,0.00,-RA,OVC,0.00,WeatherDisplay:10.37,2013-05-15 17:16:00,
2013-05-15 11:21:00,76.2,40.7,30.01,WSW,251,5.0,5.0,28,0.00,-RA,OVC,0.00,WeatherDisplay:10.37,2013-05-15 17:21:00,
2013-05-15 11:26:00,76.6,41.0,30.01,WSW,249,4.6,4.6,28,0.00,-RA,OVC,0.00,WeatherDisplay:10.37,2013-05-15 17:26:00,
2013-05-15 11:32:00,76.8,42.1,30.01,WSW,258,3.5,3.5,29,0.00,-RA,OVC,0.00,WeatherDisplay:10.37,2013-05-15 17:32:00,
2013-05-15 11:37:00,76.6,42.0,30.00,South,189,6.9,6.9,29,0.00,-RA,OVC,0.00,WeatherDisplay:10.37,2013-05-15 17:37:00,
2013-05-15 11:42:00,76.5,41.9,30.00,SW,229,5.8,5.8,29,0.00,-RA,OVC,0.00,WeatherDisplay:10.37,2013-05-15 17:42:00,
2013-05-15 11:47:00,76.4,41.8,30.00,West,265,5.8,5.8,29,0.00,-RA,OVC,0.00,WeatherDisplay:10.37,2013-05-15 17:47:00,
2013-05-15 11:53:00,76.4,39.9,30.00,ESE,119,9.2,9.2,27,0.00,-RA,OVC,0.00,WeatherDisplay:10.37,2013-05-15 17:53:00,
2013-05-15 11:58:00,76.4,41.8,30.00,ESE,107,9.2,9.2,29,0.00,-RA,OVC,0.00,WeatherDisplay:10.37,2013-05-15 17:58:00,
2013-05-15 12:03:00,77.1,43.3,30.00,SSW,200,6.9,6.9,30,0.00,-RA,OVC,0.00,WeatherDisplay:10.37,2013-05-15 18:03:00,
2013-05-15 12:08:00,77.4,41.7,30.00,ESE,109,5.8,5.8,28,0.00,-RA,OVC,0.00,WeatherDisplay:10.37,2013-05-15 18:08:00,
2013-05-15 12:13:00,77.5,42.7,30.00,SE,132,1.1,1.1,29,0.00,-RA,OVC,0.00,WeatherDisplay:10.37,2013-05-15 18:13:00,
2013-05-15 12:18:00,78.0,40.3,30.00,SSE,166,6.9,6.9,26,0.00,-RA,OVC,0.00,WeatherDisplay:10.37,2013-05-15 18:18:00,
2013-05-15 12:23:00,78.2,41.5,30.00,WSW,238,4.6,4.6,27,0.00,-RA,OVC,0.00,WeatherDisplay:10.37,2013-05-15 18:23:00,
2013-05-15 12:29:00,78.7,42.8,30.00,SSE,161,8.1,8.1,28,0.00,-RA,OVC,0.00,WeatherDisplay:10.37,2013-05-15 18:29:00,
2013-05-15 12:34:00,78.6,40.8,30.00,SW,223,5.8,5.8,26,0.00,-RA,OVC,0.00,WeatherDisplay:10.37,2013-05-15 18:34:00,
2013-05-15 12:39:00,78.5,40.7,30.00,SSW,204,5.8,5.8,26,0.00,-RA,OVC,0.00,WeatherDisplay:10.37,2013-05-15 18:39:00,
2013-05-15 12:44:00,78.6,40.8,30.00,West,275,6.9,6.9,26,0.00,-RA,OVC,0.00,WeatherDisplay:10.37,2013-05-15 18:44:00,
2013-05-15 12:49:00,79.0,40.2,30.00,South,191,4.6,4.6,25,0.00,-RA,OVC,0.00,WeatherDisplay:10.37,2013-05-15 18:49:00,
2013-05-15 12:54:00,79.4,41.5,30.00,SW,216,6.9,6.9,26,0.00,-RA,OVC,0.00,WeatherDisplay:10.37,2013-05-15 18:54:00,
2013-05-15 12:59:00,79.7,39.7,30.00,South,186,6.9,6.9,24,0.00,-RA,OVC,0.00,WeatherDisplay:10.37,2013-05-15 18:59:00,
2013-05-15 13:05:00,79.5,40.6,30.00,SSE,165,6.9,6.9,25,0.00,-RA,OVC,0.00,WeatherDisplay:10.37,2013-05-15 19:05:00,
2013-05-15 13:10:00,79.8,40.8,30.00,WNW,288,9.2,9.2,25,0.00,-RA,OVC,0.00,WeatherDisplay:10.37,2013-05-15 19:10:00,
2013-05-15 13:15:00,79.5,39.5,29.97,WSW,255,4.6,4.6,24,0.00,-RA,OVC,0.00,WeatherDisplay:10.37,2013-05-15 19:15:00,
2013-05-15 13:21:00,79.6,40.7,29.97,West,262,5.8,5.8,25,0.00,-RA,OVC,0.00,WeatherDisplay:10.37,2013-05-15 19:21:00,
2013-05-15 13:27:00,79.6,42.7,29.97,SSW,202,4.6,4.6,27,0.00,-RA,OVC,0.00,WeatherDisplay:10.37,2013-05-15 19:27:00,
2013-05-15 13:32:00,79.6,43.6,29.97,South,187,5.8,5.8,28,0.00,-RA,OVC,0.00,WeatherDisplay:10.37,2013-05-15 19:32:00,
2013-05-15 13:37:00,79.6,41.7,29.97,SSW,194,6.9,6.9,26,0.00,-RA,OVC,0.00,WeatherDisplay:10.37,2013-05-15 19:37:00,
2013-05-15 13:42:00,79.2,42.3,29.97,South,170,5.8,5.8,27,0.00,-RA,OVC,0.00,WeatherDisplay:10.37,2013-05-15 19:42:00,
2013-05-15 13:47:00,79.5,41.6,29.97,SW,236,5.8,5.8,26,0.00,-RA,OVC,0.00,WeatherDisplay:10.37,2013-05-15 19:47:00,
2013-05-15 13:53:00,79.7,40.8,29.97,SW,229,10.4,10.4,25,0.00,-RA,OVC,0.00,WeatherDisplay:10.37,2013-05-15 19:53:00,
2013-05-15 13:58:00,79.7,39.7,29.97,SSW,195,5.8,5.8,24,0.00,-RA,OVC,0.00,WeatherDisplay:10.37,2013-05-15 19:58:00,
2013-05-15 14:03:00,79.3,40.4,29.97,SW,218,5.8,5.8,25,0.00,-RA,OVC,0.00,WeatherDisplay:10.37,2013-05-15 20:03:00,
2013-05-15 14:08:00,79.1,43.2,29.97,South,180,3.5,3.5,28,0.00,-RA,OVC,0.00,WeatherDisplay:10.37,2013-05-15 20:08:00,
2013-05-15 14:13:00,79.0,41.2,29.95,SE,126,1.1,1.1,26,0.00,-RA,OVC,0.00,WeatherDisplay:10.37,2013-05-15 20:13:00,
2013-05-15 14:19:00,79.4,41.5,29.95,West,274,2.3,2.3,26,0.00,-RA,OVC,0.00,WeatherDisplay:10.37,2013-05-15 20:19:00,
2013-05-15 14:24:00,79.7,41.8,29.95,SW,236,6.9,6.9,26,0.00,-RA,OVC,0.00,WeatherDisplay:10.37,2013-05-15 20:24:00,
2013-05-15 14:29:00,80.0,41.0,29.95,SSW,205,3.5,3.5,25,0.00,-RA,OVC,0.00,WeatherDisplay:10.37,2013-05-15 20:29:00,
2013-05-15 14:34:00,80.0,41.0,29.95,SW,232,6.0,6.0,25,0.00,-RA,OVC,0.00,WeatherDisplay:10.37,2013-05-15 20:34:00,
2013-05-15 14:41:00,80.4,41.3,29.95,SSW,203,3.5,3.5,25,0.00,-RA,OVC,0.00,WeatherDisplay:10.37,2013-05-15 20:41:00,
2013-05-15 14:46:00,81.0,42.9,29.95,WSW,248,3.5,3.5,26,0.00,-RA,OVC,0.00,WeatherDisplay:10.37,2013-05-15 20:46:00,
2013-05-15 14:51:00,80.8,40.6,29.95,WSW,248,4.6,4.6,24,0.00,-RA,OVC,0.00,WeatherDisplay:10.37,2013-05-15 20:51:00,
2013-05-15 14:56:00,80.2,41.2,29.95,West,267,6.0,6.0,25,0.00,-RA,OVC,0.00,WeatherDisplay:10.37,2013-05-15 20:56:00,
2013-05-15 15:02:00,80.1,41.1,29.94,South,181,4.6,4.6,25,0.00,-RA,OVC,0.00,WeatherDisplay:10.37,2013-05-15 21:02:00,
2013-05-15 15:07:00,79.4,39.4,29.94,South,178,3.5,3.5,24,0.00,-RA,OVC,0.00,WeatherDisplay:10.37,2013-05-15 21:07:00,
2013-05-15 15:12:00,79.1,40.2,29.94,South,178,1.1,1.1,25,0.00,-RA,OVC,0.00,WeatherDisplay:10.37,2013-05-15 21:12:00,
2013-05-15 15:17:00,79.1,39.2,29.94,South,186,3.5,3.5,24,0.00,-RA,OVC,0.00,WeatherDisplay:10.37,2013-05-15 21:17:00,
2013-05-15 15:23:00,78.7,39.9,29.94,South,174,3.5,3.5,25,0.00,-RA,OVC,0.00,WeatherDisplay:10.37,2013-05-15 21:23:00,
2013-05-15 15:28:00,78.4,39.7,29.94,South,175,1.1,0.0,25,0.00,-RA,OVC,0.00,WeatherDisplay:10.37,2013-05-15 21:28:00,
2013-05-15 15:33:00,78.2,42.4,29.94,NNW,339,8.1,8.1,28,0.00,-RA,OVC,0.00,WeatherDisplay:10.37,2013-05-15 21:33:00,
2013-05-15 15:38:00,77.1,42.4,29.94,North,5,10.4,10.4,29,0.00,-RA,OVC,0.00,WeatherDisplay:10.37,2013-05-15 21:38:00,
2013-05-15 15:43:00,76.1,42.4,29.95,North,5,13.8,13.8,30,0.00,-RA,OVC,0.00,WeatherDisplay:10.37,2013-05-15 21:43:00,
2013-05-15 15:48:00,75.5,42.7,29.95,North,350,13.8,13.8,31,0.00,-RA,OVC,0.00,WeatherDisplay:10.37,2013-05-15 21:48:00,
2013-05-15 15:53:00,74.9,42.2,29.95,NE,55,20.7,20.7,31,0.00,-RA,OVC,0.00,WeatherDisplay:10.37,2013-05-15 21:53:00,
2013-05-15 15:59:00,74.0,42.3,29.95,NE,45,20.7,20.7,32,0.00,-RA,OVC,0.00,WeatherDisplay:10.37,2013-05-15 21:59:00,
2013-05-15 16:04:00,72.9,42.9,29.95,NNE,27,13.8,13.8,34,0.00,-RA,OVC,0.00,WeatherDisplay:10.37,2013-05-15 22:04:00,
2013-05-15 16:09:00,71.9,43.5,29.95,NE,40,16.1,16.1,36,0.00,-RA,OVC,0.00,WeatherDisplay:10.37,2013-05-15 22:09:00,
2013-05-15 16:15:00,70.8,43.2,29.95,ENE,78,17.3,17.3,37,0.00,-RA,OVC,0.00,WeatherDisplay:10.37,2013-05-15 22:15:00,
2013-05-15 16:20:00,69.9,43.8,29.95,ENE,75,11.5,11.5,39,0.00,-RA,OVC,0.00,WeatherDisplay:10.37,2013-05-15 22:20:00,
2013-05-15 16:25:00,69.3,43.9,29.95,ENE,57,9.2,9.2,40,0.00,-RA,OVC,0.00,WeatherDisplay:10.37,2013-05-15 22:25:00,
2013-05-15 16:30:00,69.3,42.6,29.95,NE,51,13.8,13.8,38,0.00,-RA,OVC,0.00,WeatherDisplay:10.37,2013-05-15 22:30:00,
2013-05-15 16:35:00,69.4,43.4,29.95,ESE,111,16.1,16.1,39,0.00,-RA,OVC,0.00,WeatherDisplay:10.37,2013-05-15 22:35:00,
2013-05-15 16:41:00,69.0,44.3,29.95,SE,136,17.3,17.3,41,0.00,-RA,OVC,0.00,WeatherDisplay:10.37,2013-05-15 22:41:00,
2013-05-15 16:46:00,68.0,45.3,29.95,NE,42,11.5,11.5,44,0.00,-RA,OVC,0.00,WeatherDisplay:10.37,2013-05-15 22:46:00,
2013-05-15 16:51:00,66.3,48.1,29.95,ESE,104,18.4,18.4,52,0.00,-RA,OVC,0.00,WeatherDisplay:10.37,2013-05-15 22:51:00,
2013-05-15 16:56:00,64.4,47.9,29.95,ENE,68,11.5,11.5,55,0.01,-RA,OVC,0.01,WeatherDisplay:10.37,2013-05-15 22:56:00,
2013-05-15 17:01:00,63.7,48.6,29.95,ESE,108,5.8,5.8,58,0.01,-RA,OVC,0.01,WeatherDisplay:10.37,2013-05-15 23:01:00,
2013-05-15 17:06:00,63.4,47.9,29.95,East,92,11.5,11.5,57,0.01,-RA,OVC,0.01,WeatherDisplay:10.37,2013-05-15 23:06:00,
2013-05-15 17:12:00,63.1,48.5,29.95,ESE,123,12.7,12.7,59,0.01,-RA,OVC,0.01,WeatherDisplay:10.37,2013-05-15 23:12:00,
2013-05-15 17:17:00,62.6,49.0,29.95,SE,128,6.9,6.9,61,0.01,-RA,OVC,0.01,WeatherDisplay:10.37,2013-05-15 23:17:00,
2013-05-15 17:22:00,62.3,48.2,29.95,ESE,118,9.2,9.2,60,0.01,-RA,OVC,0.01,WeatherDisplay:10.37,2013-05-15 23:22:00,
2013-05-15 17:27:00,62.6,48.1,29.95,SE,132,7.0,7.0,59,0.01,-RA,OVC,0.01,WeatherDisplay:10.37,2013-05-15 23:27:00,
2013-05-15 17:33:00,62.8,48.7,30.02,SE,134,5.8,5.8,60,0.01,-RA,OVC,0.01,WeatherDisplay:10.37,2013-05-15 23:33:00,
2013-05-15 17:38:00,62.6,48.5,30.02,SE,136,8.1,8.1,60,0.01,-RA,OVC,0.01,WeatherDisplay:10.37,2013-05-15 23:38:00,
2013-05-15 17:43:00,62.2,49.9,30.02,South,191,14.0,14.0,64,0.01,-RA,OVC,0.01,WeatherDisplay:10.37,2013-05-15 23:43:00,
2013-05-15 17:48:00,61.0,50.4,30.02,South,173,10.4,10.4,68,0.01,-RA,OVC,0.01,WeatherDisplay:10.37,2013-05-15 23:48:00,
2013-05-15 17:53:00,60.5,49.9,30.02,SE,139,5.8,7.0,68,0.01,-RA,OVC,0.01,WeatherDisplay:10.37,2013-05-15 23:53:00,
2013-05-15 17:59:00,60.2,50.0,30.02,SSE,167,5.8,5.8,69,0.00,-RA,OVC,0.01,WeatherDisplay:10.37,2013-05-15 23:59:00,
2013-05-15 18:04:00,60.0,49.8,29.99,South,174,9.2,9.2,69,0.00,-RA,OVC,0.01,WeatherDisplay:10.37,2013-05-16 00:04:00,
2013-05-15 18:09:00,59.9,50.1,29.99,SE,130,9.2,9.2,70,0.00,-RA,OVC,0.01,WeatherDisplay:10.37,2013-05-16 00:09:00,
2013-05-15 18:15:00,60.0,49.4,29.99,South,175,10.4,10.4,68,0.00,-RA,OVC,0.01,WeatherDisplay:10.37,2013-05-16 00:15:00,
2013-05-15 18:20:00,60.1,49.5,29.99,East,95,11.5,11.5,68,0.00,-RA,OVC,0.01,WeatherDisplay:10.37,2013-05-16 00:20:00,
2013-05-15 18:25:00,60.2,49.2,29.99,SSE,152,10.4,10.4,67,0.00,-RA,OVC,0.01,WeatherDisplay:10.37,2013-05-16 00:25:00,
2013-05-15 18:30:00,60.4,49.4,29.99,SSE,162,6.9,6.9,67,0.00,-RA,OVC,0.01,WeatherDisplay:10.37,2013-05-16 00:30:00,
2013-05-15 18:35:00,60.5,49.1,29.97,ENE,61,5.8,5.8,66,0.00,-RA,OVC,0.01,WeatherDisplay:10.37,2013-05-16 00:35:00,
2013-05-15 18:40:00,60.4,49.4,29.97,SE,136,12.7,12.7,67,0.00,-RA,OVC,0.01,WeatherDisplay:10.37,2013-05-16 00:40:00,
2013-05-15 18:46:00,60.8,48.5,29.97,SE,130,13.8,13.8,64,0.00,-RA,OVC,0.01,WeatherDisplay:10.37,2013-05-16 00:46:00,
2013-05-15 18:51:00,61.6,48.0,29.97,SE,131,9.2,9.2,61,0.00,-RA,OVC,0.01,WeatherDisplay:10.37,2013-05-16 00:51:00,
2013-05-15 18:56:00,61.8,49.1,29.97,SE,127,8.1,8.1,63,0.00,-RA,OVC,0.01,WeatherDisplay:10.37,2013-05-16 00:56:00,
2013-05-15 19:01:00,61.6,49.7,29.97,NE,46,6.9,6.9,65,0.00,-RA,OVC,0.01,WeatherDisplay:10.37,2013-05-16 01:01:00,
2013-05-15 19:06:00,61.4,48.3,29.97,NNW,329,11.5,11.5,62,0.00,-RA,OVC,0.01,WeatherDisplay:10.37,2013-05-16 01:06:00,
2013-05-15 19:11:00,61.6,48.0,29.97,NNW,337,10.4,10.4,61,0.00,-RA,OVC,0.01,WeatherDisplay:10.37,2013-05-16 01:11:00,
2013-05-15 19:16:00,61.9,47.9,29.97,NE,53,3.5,3.5,60,0.00,-RA,OVC,0.01,WeatherDisplay:10.37,2013-05-16 01:16:00,
2013-05-15 19:22:00,62.1,48.0,29.97,NNE,15,4.6,4.6,60,0.00,-RA,OVC,0.01,WeatherDisplay:10.37,2013-05-16 01:22:00,
2013-05-15 19:27:00,62.2,47.7,29.97,North,5,4.6,4.6,59,0.00,-RA,OVC,0.01,WeatherDisplay:10.37,2013-05-16 01:27:00,
2013-05-15 19:32:00,62.3,47.8,29.97,North,360,2.3,2.3,59,0.00,-RA,OVC,0.01,WeatherDisplay:10.37,2013-05-16 01:32:00,
2013-05-15 19:38:00,62.4,47.9,30.01,NNW,340,3.5,3.5,59,0.00,-RA,OVC,0.01,WeatherDisplay:10.37,2013-05-16 01:38:00,
2013-05-15 19:43:00,62.3,48.2,30.01,NNW,340,3.5,3.5,60,0.00,-RA,OVC,0.01,WeatherDisplay:10.37,2013-05-16 01:43:00,
2013-05-15 19:48:00,62.2,48.1,30.01,NNW,340,3.5,3.5,60,0.00,-RA,OVC,0.01,WeatherDisplay:10.37,2013-05-16 01:48:00,
2013-05-15 19:53:00,62.2,47.7,30.01,NNW,340,0.0,0.0,59,0.00,-RA,OVC,0.01,WeatherDisplay:10.37,2013-05-16 01:53:00,
2013-05-15 19:58:00,62.1,47.6,30.01,NNW,340,0.0,0.0,59,0.00,-RA,OVC,0.01,WeatherDisplay:10.37,2013-05-16 01:58:00,
2013-05-15 20:03:00,62.1,48.0,30.01,NNW,340,0.0,0.0,60,0.00,-RA,OVC,0.01,WeatherDisplay:10.37,2013-05-16 02:03:00,
2013-05-15 20:09:00,62.0,48.0,30.01,NNW,340,0.0,0.0,60,0.00,-RA,OVC,0.01,WeatherDisplay:10.37,2013-05-16 02:09:00,
2013-05-15 20:15:00,61.9,47.9,30.01,NNW,340,0.0,0.0,60,0.00,-RA,OVC,0.01,WeatherDisplay:10.37,2013-05-16 02:15:00,
2013-05-15 20:20:00,61.8,48.2,30.01,NNW,340,0.0,0.0,61,0.00,-RA,OVC,0.01,WeatherDisplay:10.37,2013-05-16 02:20:00,
2013-05-15 20:25:00,61.7,48.5,30.01,NNW,340,0.0,0.0,62,0.00,-RA,OVC,0.01,WeatherDisplay:10.37,2013-05-16 02:25:00,
2013-05-15 20:30:00,61.5,48.4,30.01,NNW,340,0.0,0.0,62,0.00,-RA,OVC,0.01,WeatherDisplay:10.37,2013-05-16 02:30:00,
2013-05-15 20:35:00,61.5,48.8,30.01,NNW,340,0.0,0.0,63,0.00,-RA,OVC,0.01,WeatherDisplay:10.37,2013-05-16 02:35:00,
2013-05-15 20:40:00,61.4,48.7,30.01,NNW,340,0.0,0.0,63,0.00,-RA,OVC,0.01,WeatherDisplay:10.37,2013-05-16 02:40:00,
2013-05-15 20:46:00,61.3,49.0,30.01,NNW,340,0.0,0.0,64,0.00,-RA,OVC,0.01,WeatherDisplay:10.37,2013-05-16 02:46:00,
2013-05-15 20:51:00,61.3,48.6,30.01,NNW,340,0.0,0.0,63,0.00,-RA,OVC,0.01,WeatherDisplay:10.37,2013-05-16 02:51:00,
2013-05-15 20:56:00,61.2,48.9,30.01,NNW,340,0.0,0.0,64,0.00,-RA,OVC,0.01,WeatherDisplay:10.37,2013-05-16 02:56:00,
2013-05-15 21:01:00,61.2,48.1,30.01,NNW,340,2.3,2.3,62,0.00,-RA,OVC,0.01,WeatherDisplay:10.37,2013-05-16 03:01:00,
2013-05-15 21:07:00,61.3,48.2,30.01,NNW,340,0.0,0.0,62,0.00,-RA,OVC,0.01,WeatherDisplay:10.37,2013-05-16 03:07:00,
2013-05-15 21:12:00,61.3,48.2,30.01,NNW,340,0.0,0.0,62,0.00,-RA,OVC,0.01,WeatherDisplay:10.37,2013-05-16 03:12:00,
2013-05-15 21:17:00,61.3,48.6,30.02,NNW,340,0.0,0.0,63,0.00,-RA,OVC,0.01,WeatherDisplay:10.37,2013-05-16 03:17:00,
2013-05-15 21:22:00,61.2,48.1,30.02,NNW,340,0.0,0.0,62,0.00,-RA,OVC,0.01,WeatherDisplay:10.37,2013-05-16 03:22:00,
2013-05-15 21:28:00,61.1,48.4,30.02,NNW,340,0.0,0.0,63,0.00,-RA,OVC,0.01,WeatherDisplay:10.37,2013-05-16 03:28:00,
2013-05-15 21:33:00,61.0,48.3,30.02,NNW,340,0.0,0.0,63,0.00,-RA,OVC,0.01,WeatherDisplay:10.37,2013-05-16 03:33:00,
2013-05-15 21:38:00,60.9,49.1,30.02,NNW,340,1.1,1.1,65,0.00,-RA,OVC,0.01,WeatherDisplay:10.37,2013-05-16 03:38:00,
2013-05-15 21:43:00,61.0,46.6,30.02,NE,49,0.0,0.0,59,0.00,-RA,OVC,0.01,WeatherDisplay:10.37,2013-05-16 03:43:00,
2013-05-15 21:48:00,61.3,47.3,30.02,NE,49,0.0,0.0,60,0.00,-RA,OVC,0.01,WeatherDisplay:10.37,2013-05-16 03:48:00,
2013-05-15 21:53:00,61.3,48.2,30.02,NE,49,0.0,0.0,62,0.00,-RA,OVC,0.01,WeatherDisplay:10.37,2013-05-16 03:53:00,
2013-05-15 21:58:00,61.3,47.7,30.02,NE,49,0.0,0.0,61,0.00,-RA,OVC,0.01,WeatherDisplay:10.37,2013-05-16 03:58:00,
2013-05-15 22:01:00,61.3,48.2,30.02,NE,49,0.0,0.0,62,0.00,-RA,OVC,0.01,WeatherDisplay:10.37,2013-05-16 04:01:00,
2013-05-15 22:06:00,61.1,48.8,30.03,NE,49,0.0,0.0,64,0.00,-RA,OVC,0.01,WeatherDisplay:10.37,2013-05-16 04:06:00,
2013-05-15 22:11:00,61.1,48.4,30.03,NE,49,0.0,0.0,63,0.00,-RA,OVC,0.01,WeatherDisplay:10.37,2013-05-16 04:11:00,
2013-05-15 22:16:00,60.9,47.8,30.03,NE,49,0.0,0.0,62,0.00,-RA,OVC,0.01,WeatherDisplay:10.37,2013-05-16 04:16:00,
2013-05-15 22:21:00,60.8,47.7,30.03,NE,49,0.0,0.0,62,0.00,-RA,OVC,0.01,WeatherDisplay:10.37,2013-05-16 04:21:00,
2013-05-15 22:26:00,60.7,48.0,30.03,NE,49,0.0,0.0,63,0.00,-RA,OVC,0.01,WeatherDisplay:10.37,2013-05-16 04:26:00,
2013-05-15 22:31:00,60.5,48.3,30.02,NE,49,0.0,0.0,64,0.00,-RA,OVC,0.01,WeatherDisplay:10.37,2013-05-16 04:31:00,
2013-05-15 22:36:00,60.4,48.6,30.02,NE,49,0.0,0.1,65,0.00,-RA,OVC,0.01,WeatherDisplay:10.37,2013-05-16 04:36:00,
2013-05-15 22:41:00,60.2,48.8,30.02,NE,49,0.0,0.0,66,0.00,-RA,OVC,0.01,WeatherDisplay:10.37,2013-05-16 04:41:00,
2013-05-15 22:46:00,60.0,48.6,30.01,NE,49,2.3,2.3,66,0.00,-RA,OVC,0.01,WeatherDisplay:10.37,2013-05-16 04:46:00,
2013-05-15 22:51:00,59.8,48.8,30.01,NE,49,1.1,0.0,67,0.00,-RA,OVC,0.01,WeatherDisplay:10.37,2013-05-16 04:51:00,
2013-05-15 22:56:00,59.7,48.7,30.01,NE,49,0.0,0.0,67,0.00,-RA,OVC,0.01,WeatherDisplay:10.37,2013-05-16 04:56:00,
2013-05-15 23:01:00,59.6,49.0,30.01,NE,49,0.0,0.0,68,0.00,-RA,OVC,0.01,WeatherDisplay:10.37,2013-05-16 05:01:00,
2013-05-15 23:06:00,59.4,48.8,30.01,NE,49,0.0,0.0,68,0.00,-RA,OVC,0.01,WeatherDisplay:10.37,2013-05-16 05:06:00,
2013-05-15 23:11:00,59.3,48.7,30.01,NE,49,0.0,0.0,68,0.00,-RA,OVC,0.01,WeatherDisplay:10.37,2013-05-16 05:11:00,
2013-05-15 23:16:00,59.2,49.0,30.01,NE,49,0.0,0.0,69,0.00,-RA,OVC,0.01,WeatherDisplay:10.37,2013-05-16 05:16:00,
2013-05-15 23:21:00,59.0,49.2,30.01,NE,49,1.1,0.0,70,0.00,-RA,OVC,0.01,WeatherDisplay:10.37,2013-05-16 05:21:00,
2013-05-15 23:26:00,59.0,48.4,30.01,NE,49,0.0,0.0,68,0.00,-RA,OVC,0.01,WeatherDisplay:10.37,2013-05-16 05:26:00,
2013-05-15 23:31:00,58.9,48.4,30.01,NE,49,0.0,0.0,68,0.00,-RA,OVC,0.01,WeatherDisplay:10.37,2013-05-16 05:31:00,
2013-05-15 23:36:00,58.8,48.3,30.01,NE,49,0.0,0.0,68,0.00,-RA,OVC,0.01,WeatherDisplay:10.37,2013-05-16 05:36:00,
2013-05-15 23:41:00,58.6,47.7,30.01,NE,49,0.0,0.0,67,0.00,-RA,OVC,0.01,WeatherDisplay:10.37,2013-05-16 05:41:00,
2013-05-15 23:46:00,58.6,48.1,30.01,NE,49,0.0,0.0,68,0.00,-RA,OVC,0.01,WeatherDisplay:10.37,2013-05-16 05:46:00,
2013-05-15 23:51:00,58.4,47.9,30.01,NE,49,0.0,0.0,68,0.00,-RA,OVC,0.01,WeatherDisplay:10.37,2013-05-16 05:51:00,
2013-05-15 23:56:00,58.3,48.2,30.01,NE,49,0.0,0.0,69,0.00,-RA,OVC,0.01,WeatherDisplay:10.37,2013-05-16 05:56:00,